This is the latest recevied weather packets stored in our database for station/object NC4J. If no packets are shown the sender has not sent any weather packets the latest 10 day(s).
| Time | Temp. | Humidity | Pressure | Rain* | Wind** | Luminosity | Snow |
|---|---|---|---|---|---|---|---|
| 1777554696 | 13.89° C | 70% | 1013.1 hPa | 0 mm | - | 46 W/m² | - |
| 1777554392 | 13.89° C | 70% | 1013.1 hPa | 0 mm | - | 36 W/m² | - |
| 1777554089 | 13.89° C | 71% | 1012.9 hPa | 0 mm | - | 28 W/m² | - |
| 1777553786 | 13.89° C | 71% | 1013.2 hPa | 0 mm | - | 32 W/m² | - |
| 1777553483 | 13.89° C | 72% | 1013 hPa | 0 mm | - | 44 W/m² | - |
| 1777553178 | 13.89° C | 71% | 1013 hPa | 0 mm | - | 36 W/m² | - |
| 1777552874 | 13.89° C | 72% | 1013 hPa | 0 mm | - | 32 W/m² | - |
| 1777552569 | 13.89° C | 72% | 1013.1 hPa | 0 mm | - | 36 W/m² | - |
| 1777552266 | 13.33° C | 74% | 1013 hPa | 0 mm | - | 31 W/m² | - |
| 1777551962 | 13.33° C | 74% | 1013 hPa | 0 mm | - | 20 W/m² | - |
| 1777551660 | 13.33° C | 74% | 1012.9 hPa | 0 mm | - | 10 W/m² | - |
| 1777551358 | 13.33° C | 74% | 1012.6 hPa | 0 mm | - | 12 W/m² | - |
| 1777551053 | 13.33° C | 75% | 1012.5 hPa | 0 mm | - | 9 W/m² | - |
| 1777550750 | 13.33° C | 74% | 1012.6 hPa | 0 mm | - | 7 W/m² | - |
| 1777550447 | 13.33° C | 74% | 1012.6 hPa | 0 mm | - | 5 W/m² | - |
| 1777550143 | 13.33° C | 75% | 1012.5 hPa | 0 mm | - | 3 W/m² | - |
| 1777549839 | 12.78° C | 76% | 1012.4 hPa | 0 mm | - | 3 W/m² | - |
| 1777549536 | 12.78° C | 78% | 1012.5 hPa | 0 mm | - | 4 W/m² | - |
| 1777549232 | 12.78° C | 77% | 1012.6 hPa | 0 mm | - | 4 W/m² | - |
| 1777548929 | 12.78° C | 79% | 1012.8 hPa | 0 mm | - | 4 W/m² | - |
| 1777548626 | 12.78° C | 78% | 1012.6 hPa | 0 mm | - | 3 W/m² | - |
| 1777548322 | 12.78° C | 79% | 1012.9 hPa | 0 mm | - | 3 W/m² | - |
| 1777548020 | 12.78° C | 81% | 1012.9 hPa | 0 mm | - | 3 W/m² | - |
| 1777547721 | 12.78° C | 79% | 1013 hPa | 0 mm | - | 2 W/m² | - |
| 1777547417 | 12.78° C | 78% | 1012.8 hPa | 0 mm | - | 2 W/m² | - |
* Rain latest hour (hover to see other rain measurements)
** Current wind speed in m/s (hover to see current wind gust speed)